COSMOS 2160

导读

COSMOS 2160是苏联(独立国协CIS)“宇宙”(Cosmos/Kosmos)系列卫星中的一颗,于1991年9月28日发射升空。该系列卫星自1960年代起持续发射,承担科学研究、导航与军事侦察等多元任务,多数任务细节未完全公开,是冷战后苏联/俄罗斯空间探索与监测能力的典型载体,延续了该系列多用途无人航天器的发展脉络。

基本信息
目录编号:
21731
目录名称:
COSMOS 2160
国际标识:
1991-068D
轨道中心:
EARTH
卫星名称:
COSMOS 2160
卫星全名:
--
卫星状态:
在轨 (已飞行12771 天)
发射日期:
1991-09-28 UTC
国别 :
俄罗斯(独联体) (CIS)
星等 :
--
该卫星已列入 空间交会检测服务 Space Conjunction Data Service (SCDS) ,当前飞行风险评估等级: 无高风险
轨道信息
数据来源 国际轨道数据 AOE轨道数据
星历时间 2026-09-15T00:41:42+0800
21小时前
查看轨道信息
2026-09-14T07:00:00+0800
1天前
查看轨道信息
半长轴 7781.705km 7781.693km
偏心率 0.0009009 0.0008589
轨道倾角 82.582° 82.579°
近地点辐角 159.549° 156.331°
升交点赤经 247.024° 247.496°
平近点角 14.085° 262.171°
近地点 1396.557km 1396.872km
远地点 1410.579km 1410.24km
周期 113.860分钟 113.860分钟
每日圈数 12.647092 12.647121
详细信息
使用方式:
暂无
2D轨道图
3D轨道图
轨道高度分析图
轨道倾角分析图
轨道综合分析图
查看轨道综合分析图
与全量物体交会距离演化趋势 订阅飞行安全评估服务
与全量物体交会风险概率演化趋势 订阅飞行安全评估服务